Overview Statistics Trail Chart Weather Telemetry Raw packets
 

This is the latest recevied weather packets stored in our database for station/object KO4LCK. If no packets are shown the sender has not sent any weather packets the latest 10 day(s).

<< 93 94 95 96 97 98 99 >>
Time Temp. Humidity Pressure Rain* Wind** Luminosity Snow
1787932028 31.11° C 65% 1018.5 hPa 0 mm - 678 W/m² -
1787931727 30.56° C 67% 1018.5 hPa 0 mm - 657 W/m² -
1787931426 30.56° C 65% 1018.7 hPa 0 mm - 649 W/m² -
1787931122 30.56° C 64% 1018.5 hPa 0 mm - 637 W/m² -
1787930821 31.11° C 64% 1018.6 hPa 0 mm - 627 W/m² -
1787930520 31.11° C 64% 1018.5 hPa 0 mm - 615 W/m² -
1787930215 30.56° C 65% 1018.5 hPa 0 mm - 598 W/m² -
1787929915 30.56° C 66% 1018.6 hPa 0 mm - 588 W/m² -
1787929614 30.56° C 68% 1018.4 hPa 0 mm - 574 W/m² -
1787929309 30.56° C 70% 1018.7 hPa 0 mm - 563 W/m² -
1787929007 30° C 69% 1018.6 hPa 0 mm - 546 W/m² -
1787928703 29.44° C 70% 1018.5 hPa 0 mm - 420 W/m² -
1787928400 29.44° C 70% 1018.5 hPa 0 mm - 420 W/m² -
1787928099 29.44° C 71% 1018.6 hPa 0 mm - 380 W/m² -
1787927799 29.44° C 71% 1018.7 hPa 0 mm - 397 W/m² -
1787927493 29.44° C 73% 1018.6 hPa 0 mm - 340 W/m² -
1787927189 28.89° C 74% 1018.6 hPa 0 mm - 429 W/m² -
1787926889 28.89° C 74% 1018.6 hPa 0 mm - 321 W/m² -
1787926584 27.78° C 76% 1018.7 hPa 0 mm - 424 W/m² -
1787926283 28.33° C 74% 1018.4 hPa 0 mm - 373 W/m² -
1787925972 27.22° C 77% 1018.6 hPa 0 mm - 384 W/m² -
1787925667 27.22° C 78% 1018.6 hPa 0 mm - 302 W/m² -
1787925362 27.22° C 78% 1018.5 hPa 0 mm - 371 W/m² -
1787925061 27.22° C 78% 1018.6 hPa 0 mm - 330 W/m² -
1787924755 27.22° C 78% 1018.7 hPa 0 mm - 310 W/m² -

* Rain latest hour (hover to see other rain measurements)
** Current wind speed in m/s (hover to see current wind gust speed)